Flag for Germany Weather past 2 weeks in Biberach an der Riss, Baden-Württemberg, Germany

Now
45 °F

Passing clouds.


Feels Like: 37 °F
Forecast: 32 / 42 °F
Wind: 16 mph from Southwest

Location: Laupheim Airport

Current Time: Mar 2, 2015 at 2:12:25 AM

Latest Report: Mar 2, 2015 at 1:20 AM


Visibility: N/A

Pressure: 29.71 "Hg

Humidity: 93%

Dew point: 43 °F

Location of Biberach an der RissLocation

Historic Weather in Biberach an der Riss — Graph

°F

Biberach an der Riss temperature yesterday

Maximum temperature yesterday: 45 °F (at 4:20 PM)
Minimum temperature yesterday: 27 °F (at 2:20 AM)
Average temperature yesterday: 37 °F

Past Weeks' High & Low Weather Summary

 TemperatureHumidityPressure
High48 °F (Feb 20, 2:20 PM)100% (Feb 15, 12:20 AM)30.66 "Hg (Feb 15, 12:20 AM)
Low23 °F (Feb 26, 6:20 AM)39% (Feb 26, 3:20 PM)29.50 "Hg (Feb 21, 12:20 PM)
Average32 °F89%30.00 "Hg
* Reported Feb 15 12:20 AM — Mar 2 12:20 AM, Biberach an der Riss, Weather by CustomWeather, © 2015

Note: Actual official high and low records may vary slightly from our data, if they occured in-between our weather recording intervals... More about our weather records

Advertising

Biberach an der Riss weather history for previous 24 hours

 ConditionsComfort  
Time TempWeatherWind HumidityBarometerVisibility
12:20 AM
Mon, Mar 2
45 °FPartly cloudy.20 mph87%29.74 "HgN/A
11:20 PM
Sun, Mar 1
43 °FLight rain. Passing clouds.15 mph93%29.74 "HgN/A
10:20 PM43 °FPassing clouds.15 mph93%29.77 "HgN/A
9:20 PM43 °FPartly cloudy.12 mph93%29.77 "HgN/A
8:20 PM43 °FPartly cloudy.12 mph93%29.80 "HgN/A
7:20 PM43 °FLight rain. Passing clouds.14 mph93%29.80 "HgN/A
6:20 PM43 °FPassing clouds.13 mph93%29.80 "HgN/A
5:20 PM45 °FPartly sunny.16 mph87%29.80 "HgN/A
4:20 PM45 °FPartly sunny.15 mph87%29.77 "HgN/A
3:20 PM43 °FPartly sunny.14 mph87%29.80 "HgN/A
2:20 PM41 °FPartly sunny.14 mph87%29.80 "HgN/A
1:20 PM41 °FPartly sunny.14 mph87%29.83 "HgN/A
12:20 PM39 °FPartly sunny.12 mph87%29.83 "HgN/A
11:20 AM37 °FBroken clouds.15 mph93%29.83 "HgN/A
10:20 AM36 °FDrizzle. Broken clouds.14 mph93%29.83 "HgN/A
9:20 AM34 °FLight rain. Mostly cloudy.12 mph100%29.86 "HgN/A
8:49 AM34 °FLight rain. Fog.15 mph93%29.86 "Hg3 mi
8:20 AM34 °FLight rain. Fog.13 mph93%29.86 "Hg2 mi
8:01 AM34 °FSnow. Fog.15 mph93%29.86 "Hg2 mi
7:20 AM34 °FDrizzle. Fog.13 mph93%29.86 "Hg2 mi
6:50 AM34 °FSleet. Fog.13 mph93%29.86 "Hg2 mi
6:20 AM34 °FSleet. Fog.8 mph87%29.86 "Hg3 mi
5:20 AM32 °FPassing clouds.2 mph93%29.89 "Hg4 mi
4:20 AM28 °FIce fog.No wind100%29.89 "Hg3 mi
3:20 AM28 °FIce fog.1 mph100%29.92 "Hg3 mi
2:20 AM27 °FIce fog.1 mph100%29.92 "Hg3 mi
Weather by CustomWeather, © 2015

See weather overviewHow to use our weather pages